Location: 22
(39.7117°N, 89.5929°W)
Time: 06:36:32
(UTC-05:00)

Vanguard 1 Rocket - Pass Details

Date: 07 February 2023
Orbit: 652 x 4223 km, 34.3° (Epoch: 26 March)

Event Time Altitude Azimuth Distance (km) Brightness Sun altitude
Rises 13:55:20 0° 268° (W) 4,790 11.5 30.1°
Reaches altitude 10° 13:57:51 10° 266° (W) 4,130 11.3 29.9°
Maximum altitude 14:09:49 71° 185° (S) 2,895 10.8 28.7°
Drops below altitude 10° 14:32:29 10° 108° (ESE) 7,204 11.8 26.2°
Sets 14:38:41 0° 107° (ESE) 8,416 12.1 25.4°
